#datint,netname,site,siteID,timestamp,IntT,BattV,AirT2,AirT,AirT_Avg,AirT_Max,AirT_Min,RH_Avg,RH_Max,RH_Min,EA_Avg,Td_Avg,Td_Max,Td_Min,WindS_Smp,WindS_Avg,WindD_Avg,WindD_SD,WindS_Max,ETo,ETr,SoilT4,SoilT8,SoilVWC8,SolarW_Avg,wetstate_Avg,wetT_Avg,Precip_accum,Precip_WPG,Precip_TB
15min,AgWx,beryljct,423,19MAY2019:00:00:00,47.3,12.98,44.1,43.6,44.7,47.0,43.6,78,86,62,0.830,38.1,39.8,34.7,0,1.4,82,34,3.6,-0.00018,-0.00024,53.6,53.5,13,0,0,40.0,15.22,0.00,0.00
15min,AgWx,beryljct,423,19MAY2019:00:15:00,47.1,12.99,45.5,44.7,44.2,44.7,43.6,80,86,74,0.748,38.6,39.8,37.1,0,0.0,73,0.0,0.7,-0.00029,-0.00047,53.4,53.5,13,0,0,38.8,15.22,0.00,0.00
15min,AgWx,beryljct,423,19MAY2019:00:30:00,46.9,12.96,45.1,45.7,45.1,46.0,44.4,73,80,68,0.764,37.0,38.9,35.7,0,0.1,89,4.2,0.8,-0.00029,-0.00046,53.3,53.5,13,0,0,39.3,15.22,0.00,0.00
15min,AgWx,beryljct,423,19MAY2019:00:45:00,46.8,12.97,45.0,45.0,45.2,45.7,44.8,77,84,69,0.769,38.3,40.5,36.0,0,0.3,58,3.3,2.0,-0.00027,-0.00042,53.1,53.4,13,0,0,39.8,15.22,0.00,0.00
15min,AgWx,beryljct,423,19MAY2019:01:00:00,46.6,12.95,46.2,45.5,44.8,45.5,44.3,78,81,74,0.763,38.5,39.6,37.5,1.535,0.7,355,33,1.6,-0.00024,-0.00035,53.0,53.4,12,0,0,39.7,15.22,0.00,0.00
15min,AgWx,beryljct,423,19MAY2019:01:15:00,46.7,12.96,44.4,46.2,45.8,46.4,45.1,72,76,68,0.738,37.2,38.1,36.2,0.811,0.8,360,45,2.4,-0.00022,-0.00032,52.9,53.4,13,0,0,40.7,15.22,0.00,0.00
15min,AgWx,beryljct,423,19MAY2019:01:30:00,46.8,12.95,45.5,45.6,46.2,47.6,45.5,69,74,61,0.729,36.4,37.7,34.6,2.105,2.6,343,14,4.7,-0.00008,-0.00009,52.8,53.4,13,0,0,41.4,15.23,0.00,0.00
15min,AgWx,beryljct,423,19MAY2019:01:45:00,46.9,12.95,45.1,45.9,45.7,46.1,44.8,69,75,66,0.719,36.1,37.4,35.4,1.359,2.2,353,21,3.4,-0.00011,-0.00012,52.7,53.4,13,0,0,40.9,15.22,0.00,0.00
15min,AgWx,beryljct,423,19MAY2019:02:00:00,46.9,12.93,45.2,45.0,45.7,46.2,45.0,69,73,66,0.744,35.9,37.0,35.4,0,2.0,1.2,14,3.1,-0.00012,-0.00014,52.6,53.3,13,0,0,41.0,15.23,0.01,0.00
15min,AgWx,beryljct,423,19MAY2019:02:15:00,46.8,12.92,43.8,45.3,45.4,47.4,44.4,71,77,60,0.762,36.6,38.0,34.1,0.723,0.4,28,50,2.1,-0.00027,-0.00041,52.5,53.3,13,0,0,40.4,15.22,0.00,0.00
15min,AgWx,beryljct,423,19MAY2019:02:30:00,46.7,12.92,47.2,45.9,45.2,46.3,44.2,73,81,66,0.729,37.2,38.8,35.6,2.148,1.0,163,8.9,2.4,-0.00021,-0.00029,52.4,53.3,13,0,0,40.3,15.22,0.00,0.00
15min,AgWx,beryljct,423,19MAY2019:02:45:00,46.6,12.91,46.3,46.2,46.4,47.1,45.6,66,71,63,0.696,35.8,36.8,35.2,3.814,2.7,149,4.3,4.3,-0.00007,-0.00006,52.3,53.2,13,0,0,41.1,15.22,0.00,0.00
15min,AgWx,beryljct,423,19MAY2019:03:00:00,46.8,12.91,49.6,48.1,47.5,48.7,46.2,59,65,51,0.621,33.7,35.3,31.4,3.179,3.4,177,19,5.5,0.00001,0.00005,52.2,53.2,13,0,0,42.6,15.22,0.00,0.00
15min,AgWx,beryljct,423,19MAY2019:03:15:00,47.0,12.9,49.4,48.6,48.8,49.4,48.1,50,54,47,0.579,31.1,32.1,30.3,3.902,3.4,179,4.9,4.9,0.00005,0.00010,52.1,53.2,12,0,0,43.3,15.22,0.00,0.00
15min,AgWx,beryljct,423,19MAY2019:03:30:00,47.1,12.89,47.5,47.7,48.8,49.4,47.7,48,53,46,0.598,29.8,31.5,29.3,2.784,3.6,170,8.5,4.8,0.00008,0.00014,52.0,53.2,13,0,0,43.1,15.22,0.00,0.00
15min,AgWx,beryljct,423,19MAY2019:03:45:00,47.1,12.87,45.8,46.0,47.4,48.8,45.6,54,63,47,0.640,31.4,33.8,29.6,3.661,3.0,151,19,3.7,0.00001,0.00004,51.9,53.1,13,0,0,42.0,15.22,0.00,0.00
15min,AgWx,beryljct,423,19MAY2019:04:00:00,46.8,12.88,47.1,47.0,46.7,47.6,45.7,56,61,51,0.569,31.6,33.1,30.3,4.121,3.6,156,9.7,5.6,0.00004,0.00008,51.8,53.1,13,0,0,40.6,15.22,0.00,0.00
15min,AgWx,beryljct,423,19MAY2019:04:15:00,46.7,12.88,48.8,48.1,47.5,48.1,47.0,49,52,48,0.544,29.4,30.2,29.1,4.253,4.5,164,8.6,6.2,0.00013,0.00019,51.8,53.1,12,0,0,42.3,15.22,0.00,0.00
15min,AgWx,beryljct,423,19MAY2019:04:30:00,47.0,12.87,48.6,49.0,48.6,49.1,48.1,47,51,45,0.552,29.5,30.9,28.7,3.201,4.0,176,17,7.8,0.00011,0.00018,51.7,53.0,13,0,0,43.7,15.22,0.00,0.00
15min,AgWx,beryljct,423,19MAY2019:04:45:00,47.4,12.87,49.6,48.6,48.6,49.0,48.1,49,52,47,0.570,30.3,31.5,29.6,1.688,3.3,182,8.6,6.2,0.00005,0.00010,51.6,53.0,13,0,0,43.7,15.22,0.00,0.00
15min,AgWx,beryljct,423,19MAY2019:05:00:00,47.7,12.86,47.7,48.7,49.8,50.3,48.7,44,50,42,0.589,28.9,31.1,28.2,2.872,0.9,140,25,2.9,-0.00021,-0.00030,51.5,53.0,13,0,0,44.4,15.22,0.00,0.00
15min,AgWx,beryljct,423,19MAY2019:05:15:00,47.8,12.86,47.5,48.4,48.0,49.8,46.6,54,62,44,0.588,32.0,34.4,29.0,2.433,1.7,75,35,4.4,-0.00011,-0.00013,51.4,52.9,13,0,0,43.5,15.21,0.00,0.00
15min,AgWx,beryljct,423,19MAY2019:05:30:00,47.9,12.85,50.6,49.6,49.8,51.4,48.1,44,53,38,0.541,28.9,31.6,26.8,4.713,2.8,134,55,6.2,0.00002,0.00007,51.3,52.9,13,0,0,44.4,15.21,0.00,0.00
15min,AgWx,beryljct,423,19MAY2019:05:45:00,48.0,12.85,47.6,48.3,49.2,50.0,48.3,45,49,43,0.564,28.9,30.1,28.1,0.965,2.8,158,22,6.4,0.00037,0.00064,51.2,52.8,13,0,0,43.5,15.21,0.00,0.00
15min,AgWx,beryljct,423,19MAY2019:06:00:00,47.7,12.83,50.0,49.4,48.0,49.4,46.4,49,56,44,0.528,29.6,31.5,28.3,5.831,4.0,143,35,9.9,0.00045,0.00078,51.2,52.8,13,0,0,42.3,15.21,0.00,0.00
15min,AgWx,beryljct,423,19MAY2019:06:15:00,48.3,12.85,51.5,51.4,50.7,51.5,49.4,41,44,40,0.517,28.1,28.6,27.5,12.61,12.8,194,9.0,19.7,0.00133,0.00232,51.1,52.8,13,0,0,46.2,15.21,0.00,0.00
15min,AgWx,beryljct,423,19MAY2019:06:30:00,49.3,12.84,50.5,50.9,51.2,51.6,50.9,41,42,40,0.529,28.2,28.8,27.8,10,12.1,188,9.6,17.1,0.00132,0.00230,51.0,52.7,13,3,0,46.6,15.21,0.00,0.00
15min,AgWx,beryljct,423,19MAY2019:06:45:00,49.6,12.83,50.8,50.8,50.7,50.9,50.5,42,42,41,0.528,28.3,28.6,28.0,15.43,12.7,180,9.1,18.5,0.00136,0.00234,51.0,52.7,12,10,0,45.9,15.21,0.00,0.00
15min,AgWx,beryljct,423,19MAY2019:07:00:00,49.6,12.86,49.3,49.7,50.0,50.8,49.6,45,47,42,0.567,29.4,30.2,28.5,10.81,11.6,189,9.4,18.7,0.00123,0.00210,50.9,52.7,12,17,0,45.3,15.21,0.00,0.00
15min,AgWx,beryljct,423,19MAY2019:07:15:00,49.6,12.88,50.1,49.8,49.7,50.0,49.4,48,51,47,0.617,30.9,32.3,30.1,13.48,13.1,192,9.2,18.1,0.00131,0.00219,50.9,52.7,12,37,0,46.0,15.21,0.00,0.00
15min,AgWx,beryljct,423,19MAY2019:07:30:00,49.8,12.89,51.5,50.8,50.1,50.8,49.7,52,53,51,0.654,33.1,34.0,32.3,18.72,13.1,191,8.7,21.9,0.00146,0.00230,50.8,52.6,12,103,0,51.0,15.20,0.00,0.00
15min,AgWx,beryljct,423,19MAY2019:07:45:00,50.4,12.9,51.3,51.3,51.0,51.3,50.8,52,53,49,0.639,33.8,34.2,33.0,19.38,17.7,192,10,24.8,0.00172,0.00275,50.7,52.6,12,107,0,51.6,15.21,0.00,0.00
15min,AgWx,beryljct,423,19MAY2019:08:00:00,51.4,12.99,51.7,51.6,51.5,51.7,51.2,51,53,49,0.693,33.9,35.2,32.9,12.8,17.5,199,12,24.3,0.00206,0.00313,50.6,52.5,13,225,0,58.1,15.21,0.00,0.00
15min,AgWx,beryljct,423,19MAY2019:08:15:00,52.5,13.19,52.8,52.7,51.8,52.7,51.4,54,55,52,0.718,35.6,36.6,34.7,15.3,16.2,197,13,25.0,0.00228,0.00326,50.6,52.5,13,335,0,61.6,15.20,0.00,0.00
15min,AgWx,beryljct,423,19MAY2019:08:30:00,53.3,13.37,48.9,49.1,51.4,52.7,49.1,59,68,52,0.808,37.4,39.1,35.8,21.7,16.4,200,11,22.0,0.00218,0.00307,50.5,52.5,13,332,0,59.6,15.21,0.00,0.00
15min,AgWx,beryljct,423,19MAY2019:08:45:00,52.1,13.51,48.2,48.4,48.6,49.1,48.4,71,74,67,0.851,39.5,40.6,38.4,18.2,17.0,193,9.0,22.5,0.00176,0.00237,50.5,52.4,12,332,0,53.3,15.21,0.00,0.00
15min,AgWx,beryljct,423,19MAY2019:09:00:00,50.5,13.31,45.6,45.5,46.7,48.3,45.5,77,82,72,0.841,39.9,40.6,38.8,13.85,16.1,194,11,24.4,0.00114,0.00158,50.4,52.4,13,172,84,46.4,15.21,0.01,0.00
15min,AgWx,beryljct,423,19MAY2019:09:15:00,48.7,13.19,45.3,45.2,45.2,45.5,45.0,82,85,80,0.833,40.2,40.8,39.6,20.69,13.1,190,9.7,21.1,0.00069,0.00097,50.4,52.3,13,93,100,40.9,15.23,0.01,0.01
15min,AgWx,beryljct,423,19MAY2019:09:30:00,47.2,13.08,44.0,44.0,44.7,45.2,44.0,83,86,81,0.844,40.0,40.4,39.6,14.4,15.4,195,9.3,23.9,0.00050,0.00078,50.4,52.3,12,38,100,39.2,15.25,0.03,0.02
15min,AgWx,beryljct,423,19MAY2019:09:45:00,46.1,13.02,42.9,43.2,43.4,44.0,43.2,89,91,87,0.848,40.5,40.9,40.1,19.53,13.5,194,11,19.7,0.00032,0.00048,50.4,52.3,12,29,100,38.5,15.31,0.06,0.06
15min,AgWx,beryljct,423,19MAY2019:10:00:00,45.0,13,41.6,41.5,42.0,43.2,41.5,89,90,88,0.793,39.0,40.2,38.5,14.78,18.7,205,12,27.2,0.00038,0.00058,50.4,52.3,12,42,100,37.1,15.38,0.07,0.07
15min,AgWx,beryljct,423,19MAY2019:10:15:00,44.3,13.23,43.1,42.7,41.9,42.7,41.4,90,90,89,0.836,39.0,40.0,38.4,13.9,13.1,165,15,19.4,0.00081,0.00099,50.3,52.2,13,188,100,39.1,15.39,0.01,0.01
15min,AgWx,beryljct,423,19MAY2019:10:30:00,44.5,13.67,43.8,43.4,43.1,43.4,42.7,88,90,87,0.849,39.9,40.7,39.6,13.99,12.2,166,14,18.8,0.00100,0.00121,50.3,52.2,12,228,100,41.9,15.39,0.00,0.00
15min,AgWx,beryljct,423,19MAY2019:10:45:00,45.4,13.71,45.1,44.8,44.7,45.3,43.4,88,90,87,0.903,41.5,42.1,40.1,12.58,14.3,170,12,19.7,0.00148,0.00173,50.3,52.2,12,386,100,46.9,15.39,0.00,0.01
15min,AgWx,beryljct,423,19MAY2019:11:00:00,46.0,13.78,45.6,45.0,44.7,45.2,44.4,89,90,88,0.893,41.7,42.2,41.2,15.92,14.6,177,11,21.5,0.00106,0.00127,50.3,52.2,12,246,100,43.6,15.40,0.00,0.00
15min,AgWx,beryljct,423,19MAY2019:11:15:00,46.9,14.49,46.7,46.4,45.8,46.8,45.0,89,92,88,0.946,42.7,44.5,41.6,14.8,16.8,181,10,21.9,0.00211,0.00241,50.2,52.1,12,620,100,60.4,15.40,0.01,0.00
15min,AgWx,beryljct,423,19MAY2019:11:30:00,47.7,14.38,46.1,45.9,46.0,46.5,45.7,88,91,87,0.920,42.8,43.9,42.0,16.24,16.5,174,12,23.4,0.00199,0.00229,50.2,52.1,12,563,94,66.7,15.41,0.00,0.01
15min,AgWx,beryljct,423,19MAY2019:11:45:00,48.7,14.46,47.6,47.0,47.1,47.8,46.0,87,91,84,0.926,43.5,44.7,42.5,19.58,16.3,170,14,24.2,0.00323,0.00361,50.2,52.0,12,948,2,67.1,15.41,0.00,0.00
15min,AgWx,beryljct,423,19MAY2019:12:00:00,49.4,14.44,45.5,45.7,46.1,47.0,45.5,86,88,84,0.894,42.1,42.9,41.4,19.91,17.9,177,12,23.6,0.00200,0.00235,50.2,52.0,12,552,0,54.7,15.41,0.00,0.00
15min,AgWx,beryljct,423,19MAY2019:12:15:00,49.9,14.46,46.9,46.7,46.8,47.6,45.6,86,88,85,0.932,42.9,44.0,41.4,18.66,18.4,185,12,23.4,0.00248,0.00286,50.2,52.0,12,725,4,59.7,15.41,0.00,0.00
15min,AgWx,beryljct,423,19MAY2019:12:30:00,50.1,14.44,46.9,46.3,46.8,47.8,46.2,87,90,85,0.927,43.0,44.9,42.2,18.09,16.1,183,12,21.6,0.00207,0.00240,50.3,52.0,12,554,24,60.7,15.41,0.00,0.00
15min,AgWx,beryljct,423,19MAY2019:12:45:00,50.5,14.44,48.1,48.2,47.7,48.7,46.3,85,87,82,0.951,43.4,44.8,41.8,16.86,17.5,183,8.7,24.9,0.00319,0.00362,50.4,52.0,12,922,4,66.0,15.41,0.00,0.00
15min,AgWx,beryljct,423,19MAY2019:13:00:00,51.7,14.41,48.1,49.2,49.3,50.2,48.2,83,87,81,0.968,44.4,45.7,43.3,17.03,16.9,186,11,25.4,0.00337,0.00386,50.4,51.9,12,918,0,67.8,15.41,0.00,0.00
15min,AgWx,beryljct,423,19MAY2019:13:15:00,52.6,14.42,48.4,48.5,48.9,49.5,48.4,80,82,78,0.918,43.0,44.2,42.2,19.58,15.6,179,13,21.9,0.00249,0.00296,50.5,51.9,12,601,0,60.5,15.41,0.00,0.00
15min,AgWx,beryljct,423,19MAY2019:13:30:00,52.5,13.97,50.0,49.7,48.7,49.9,47.8,81,85,77,0.959,43.2,44.7,42.1,13.09,14.8,176,12,20.0,0.00294,0.00340,50.7,51.9,12,753,8,64.6,15.41,0.00,0.00
15min,AgWx,beryljct,423,19MAY2019:13:45:00,53.0,13.97,47.9,48.3,49.2,50.0,48.3,76,79,74,0.885,42.0,43.5,41.0,11.86,14.7,171,12,19.6,0.00273,0.00328,50.8,51.9,12,626,0,60.9,15.41,0.00,0.00
15min,AgWx,beryljct,423,19MAY2019:14:00:00,51.9,14.02,47.1,46.9,47.3,48.2,46.8,78,81,76,0.868,40.9,42.0,40.2,9.19,12.0,181,11,17.6,0.00088,0.00123,51.0,51.9,12,115,48,46.3,15.41,0.00,0.00
15min,AgWx,beryljct,423,19MAY2019:14:15:00,50.5,14.08,48.2,47.7,47.3,47.7,46.9,79,81,77,0.901,41.2,41.9,40.3,7.366,10.7,190,12,15.4,0.00097,0.00129,51.1,51.9,12,146,100,46.1,15.41,0.00,0.00
15min,AgWx,beryljct,423,19MAY2019:14:30:00,49.8,14.06,47.3,47.2,47.7,48.2,47.2,78,80,76,0.878,41.3,42.0,40.6,8.33,9.3,195,15,13.5,0.00098,0.00129,51.3,51.9,12,144,100,47.2,15.42,0.01,0.00
15min,AgWx,beryljct,423,19MAY2019:14:45:00,49.1,14.08,47.7,47.7,47.5,48.2,47.0,80,82,76,0.859,41.6,42.4,40.5,13.24,12.1,187,10,20.9,0.00152,0.00188,51.4,51.9,12,302,100,46.5,15.43,0.02,0.02
15min,AgWx,beryljct,423,19MAY2019:15:00:00,49.2,14.1,50.0,49.5,48.6,49.7,47.7,79,82,74,0.888,42.3,43.2,40.8,10.5,11.0,183,12,16.2,0.00214,0.00254,51.5,52.0,12,466,100,60.6,15.43,0.00,0.00
15min,AgWx,beryljct,423,19MAY2019:15:15:00,50.6,14.04,50.8,50.4,50.4,51.3,49.6,71,78,67,0.862,41.4,43.2,40.2,16.09,13.2,197,15,19.8,0.00252,0.00312,51.6,52.0,12,525,11,68.7,15.43,0.00,0.00
15min,AgWx,beryljct,423,19MAY2019:15:30:00,50.8,14.04,47.4,47.2,48.6,50.7,46.8,71,75,67,0.821,39.5,40.9,38.3,10.22,14.3,185,12,22.0,0.00151,0.00207,51.7,52.0,12,226,61,49.4,15.43,0.00,0.00
15min,AgWx,beryljct,423,19MAY2019:15:45:00,49.9,13.31,48.1,47.9,47.9,48.2,47.2,73,76,72,0.851,39.8,40.8,38.9,10.39,9.4,189,14,14.8,0.00125,0.00164,51.8,52.1,12,189,100,49.1,15.44,0.00,0.00
15min,AgWx,beryljct,423,19MAY2019:16:00:00,48.7,13.2,40.3,40.8,45.2,48.0,40.8,74,78,69,0.671,37.3,40.4,34.2,15.85,17.3,262,23,27.4,0.00074,0.00121,51.9,52.1,12,31,84,41.0,15.43,0.00,0.00
15min,AgWx,beryljct,423,19MAY2019:16:15:00,45.8,13.14,39.2,39.4,39.8,40.7,39.4,81,83,78,0.669,34.5,35.1,34.2,12.25,16.3,273,14,23.9,0.00043,0.00071,51.9,52.1,12,16,100,35.0,15.44,0.01,0.00
15min,AgWx,beryljct,423,19MAY2019:16:30:00,43.6,13.13,38.9,38.6,38.8,39.5,38.4,85,88,82,0.679,34.7,35.2,34.4,15.89,13.4,279,13,18.5,0.00035,0.00054,52.0,52.1,12,29,100,35.2,15.44,0.00,0.01
15min,AgWx,beryljct,423,19MAY2019:16:45:00,42.2,13.11,38.2,37.9,38.1,38.7,37.7,87,89,85,0.680,34.6,34.8,34.4,11.42,11.8,294,12,16.8,0.00032,0.00048,52.0,52.2,12,33,100,35.5,15.44,0.00,0.00
15min,AgWx,beryljct,423,19MAY2019:17:00:00,41.4,13.22,38.4,37.9,38.1,38.3,37.9,88,90,86,0.691,34.8,35.1,34.5,7.892,10.1,296,12,15.4,0.00048,0.00063,51.9,52.2,12,92,100,37.5,15.44,0.00,0.00
15min,AgWx,beryljct,423,19MAY2019:17:15:00,41.2,13.43,39.3,39.0,38.5,39.0,37.9,87,90,84,0.710,35.0,35.8,34.2,10.35,12.8,290,11,19.0,0.00067,0.00086,51.9,52.2,12,164,100,36.9,15.44,0.01,0.00
15min,AgWx,beryljct,423,19MAY2019:17:30:00,41.4,14.23,40.0,39.7,39.5,40.2,39.0,89,91,87,0.732,36.5,37.1,35.8,12.65,12.1,273,21,17.0,0.00084,0.00102,51.8,52.3,12,252,100,39.0,15.45,0.00,0.00
15min,AgWx,beryljct,423,19MAY2019:17:45:00,42.2,14.14,41.9,41.8,40.8,42.2,39.7,90,91,87,0.788,38.0,39.3,36.6,14.69,13.5,301,11,19.4,0.00159,0.00181,51.7,52.3,12,539,100,42.9,15.44,0.00,0.00
15min,AgWx,beryljct,423,19MAY2019:18:00:00,44.0,14.11,42.6,42.1,42.1,42.5,41.7,87,89,85,0.782,38.4,39.3,37.8,13.59,14.1,303,12,18.5,0.00196,0.00225,51.6,52.3,12,624,49,48.8,15.44,0.00,0.00
15min,AgWx,beryljct,423,19MAY2019:18:15:00,45.2,14.09,41.5,41.7,42.1,42.5,41.6,85,87,82,0.747,37.8,38.6,36.6,17.95,14.2,311,13,19.8,0.00143,0.00172,51.5,52.3,12,445,0,46.8,15.45,0.00,0.00
15min,AgWx,beryljct,423,19MAY2019:18:30:00,45.1,13.33,40.7,40.6,41.0,41.7,40.5,83,85,82,0.731,36.3,37.0,35.7,15.04,15.0,305,9.2,19.8,0.00057,0.00083,51.4,52.3,12,136,0,40.1,15.45,0.00,0.00
15min,AgWx,beryljct,423,19MAY2019:18:45:00,44.2,13.36,40.1,40.1,40.5,40.7,40.1,85,87,83,0.716,36.2,36.9,35.9,14.36,13.6,298,12,17.8,0.00041,0.00063,51.3,52.3,12,96,90,37.6,15.45,0.00,0.00
15min,AgWx,beryljct,423,19MAY2019:19:00:00,43.4,13.31,39.7,39.5,39.7,40.1,39.5,85,86,84,0.707,35.5,35.9,35.3,12.69,16.7,282,11,22.5,0.00037,0.00060,51.2,52.3,12,121,100,37.0,15.45,0.00,0.00
15min,AgWx,beryljct,423,19MAY2019:19:15:00,42.5,13.25,39.3,39.2,39.3,39.5,39.2,87,88,86,0.700,35.8,36.0,35.4,17.98,15.4,282,12,21.4,0.00021,0.00039,51.1,52.3,12,82,90,35.9,15.45,0.00,0.00
15min,AgWx,beryljct,423,19MAY2019:19:30:00,41.7,13.17,38.5,38.3,38.8,39.2,38.3,87,88,86,0.684,35.3,35.8,34.8,14.34,13.9,295,9.8,20.5,0.00009,0.00025,51.0,52.2,12,51,62,35.0,15.45,0.00,0.00
15min,AgWx,beryljct,423,19MAY2019:19:45:00,41.0,13.13,38.3,38.1,38.1,38.4,37.9,88,90,87,0.689,34.9,35.2,34.7,10.37,11.7,295,10,17.4,0.00008,0.00009,51.0,52.2,12,37,0,35.2,15.45,0.00,0.00
15min,AgWx,beryljct,423,19MAY2019:20:00:00,40.4,13.08,37.9,37.9,38.0,38.2,37.9,89,89,88,0.684,34.9,35.1,34.7,5.722,7.5,299,11,13.9,0.00005,0.00007,50.8,52.2,12,30,0,35.4,15.45,0.00,0.00
15min,AgWx,beryljct,423,19MAY2019:20:15:00,40.2,13.04,38.2,38.3,38.2,38.6,37.9,89,90,87,0.702,35.1,35.5,34.9,5.459,3.8,273,61,7.3,0.00000,0.00001,50.7,52.2,12,14,3,36.8,15.45,0.00,0.00
15min,AgWx,beryljct,423,19MAY2019:20:30:00,40.2,13.02,38.1,38.0,38.3,38.6,38.0,90,90,89,0.702,35.5,35.7,35.4,3.551,2.7,116,30,5.2,-0.00002,-0.00002,50.6,52.2,12,13,100,36.9,15.45,0.00,0.00
15min,AgWx,beryljct,423,19MAY2019:20:45:00,39.8,12.99,37.3,37.3,37.8,38.2,37.3,90,91,88,0.686,35.0,35.5,34.7,3.595,3.7,118,17,5.9,-0.00002,-0.00002,50.5,52.1,12,5,64,35.2,15.45,0.00,0.00
15min,AgWx,beryljct,423,19MAY2019:21:00:00,39.2,12.97,37.3,37.0,37.0,37.3,36.9,91,92,90,0.673,34.7,34.9,34.4,5.7,5.1,110,10,8.0,-0.00002,-0.00001,50.4,52.1,12,1,0,35.1,15.45,0.00,0.00
15min,AgWx,beryljct,423,19MAY2019:21:15:00,38.6,12.96,36.4,36.4,36.6,37.0,36.3,91,92,90,0.664,34.3,34.5,34.1,5.678,5.6,124,10,7.7,-0.00001,-0.00001,50.3,52.1,12,0,0,35.0,15.45,0.00,0.00
15min,AgWx,beryljct,423,19MAY2019:21:30:00,38.0,12.94,35.9,35.8,36.2,36.4,35.8,91,92,91,0.649,33.9,34.2,33.5,5.393,5.8,129,8.1,8.6,-0.00001,-0.00001,50.1,52.0,12,0,0,35.1,15.45,0.00,0.00
15min,AgWx,beryljct,423,19MAY2019:21:45:00,37.3,12.91,35.1,34.9,35.3,35.9,34.7,92,93,91,0.639,33.1,33.6,32.8,6.007,5.1,143,10,7.3,-0.00002,-0.00002,50.0,52.0,12,0,0,35.2,15.45,0.00,0.00
15min,AgWx,beryljct,423,19MAY2019:22:00:00,36.6,12.91,34.8,34.8,34.9,35.0,34.6,94,95,93,0.643,33.3,33.7,32.9,5.722,5.4,172,10,7.5,-0.00003,-0.00003,49.9,52.0,12,0,0,35.5,15.45,0.00,0.00
15min,AgWx,beryljct,423,19MAY2019:22:15:00,36.1,12.89,34.0,34.2,34.7,35.0,34.2,93,94,92,0.610,32.9,33.4,32.0,4.319,4.4,155,20,6.1,-0.00003,-0.00003,49.8,51.9,12,0,0,35.9,15.45,0.00,0.00
15min,AgWx,beryljct,423,19MAY2019:22:30:00,35.5,12.88,34.0,34.1,33.7,34.5,33.1,93,95,91,0.605,31.9,32.7,31.5,3.595,5.1,153,45,8.6,-0.00003,-0.00003,49.7,51.9,12,0,0,36.3,15.45,0.00,0.00
15min,AgWx,beryljct,423,19MAY2019:22:45:00,35.0,12.87,34.2,34.1,34.0,34.3,33.7,92,93,91,0.607,31.9,32.2,31.5,3.683,4.1,168,17,7.0,-0.00003,-0.00003,49.6,51.9,12,0,0,36.3,15.45,0.00,0.00
15min,AgWx,beryljct,423,19MAY2019:23:00:00,34.5,12.86,33.2,32.7,33.7,34.7,32.7,91,94,87,0.562,31.3,32.6,30.0,4.757,3.2,181,51,5.8,-0.00004,-0.00004,49.5,51.8,12,0,0,35.7,15.45,0.00,0.00
15min,AgWx,beryljct,423,19MAY2019:23:15:00,34.1,12.84,33.9,33.6,33.6,34.2,32.8,91,93,90,0.599,31.3,32.0,30.2,5.7,3.6,280,17,6.6,-0.00003,-0.00004,49.4,51.8,12,0,0,36.8,15.45,0.00,0.00
15min,AgWx,beryljct,423,19MAY2019:23:30:00,34.0,12.82,32.6,32.7,33.2,33.9,32.7,94,95,92,0.595,31.6,32.1,31.3,2.411,4.4,308,7.6,7.4,-0.00003,-0.00004,49.3,51.7,12,0,0,36.1,15.45,0.00,0.00
15min,AgWx,beryljct,423,19MAY2019:23:45:00,33.7,12.8,32.9,32.6,32.5,32.7,32.4,95,96,95,0.599,31.4,31.6,31.2,3.529,3.4,299,8.1,5.1,-0.00005,-0.00006,49.2,51.7,12,0,0,36.4,15.45,0.00,0.00
15min,AgWx,beryljct,423,20MAY2019:00:00:00,33.5,12.8,33.0,33.0,32.8,33.2,32.6,96,96,95,0.607,31.7,32.1,31.5,3.201,3.3,296,19,4.6,-0.00005,-0.00006,49.1,51.7,12,0,0,36.4,15.45,0.00,0.00
15min,AgWx,beryljct,423,20MAY2019:00:15:00,33.5,12.79,33.5,33.5,33.1,33.6,32.7,95,96,95,0.614,31.9,32.5,31.4,2.806,3.0,320,9.0,4.6,-0.00006,-0.00007,49.0,51.6,12,0,0,37.1,15.45,0.00,0.00
15min,AgWx,beryljct,423,20MAY2019:00:30:00,33.5,12.79,32.5,32.7,33.0,33.6,32.7,95,95,94,0.598,31.7,32.2,31.4,2.236,3.7,295,11,4.9,-0.00005,-0.00005,48.9,51.6,12,0,0,36.0,15.45,0.00,0.00
15min,AgWx,beryljct,423,20MAY2019:00:45:00,33.4,12.78,33.9,33.3,32.9,33.4,32.5,95,96,94,0.609,31.7,32.2,31.3,1.447,1.7,275,6.2,2.9,-0.00008,-0.00010,48.7,51.5,12,0,0,36.9,15.45,0.00,0.00
15min,AgWx,bigpiney,439,19MAY2019:00:00:00,36.2,12.74,30.0,29.6,29.6,30.0,29.5,89,90,89,0.500,26.8,27.2,26.6,1.754,3.2,222,7.6,5.8,-0.00001,-0.00001,42.4,38.9,55,0,0,0.0,2.23,0.00,0.00
15min,AgWx,bigpiney,439,19MAY2019:00:15:00,35.7,12.72,31.2,30.9,30.2,31.0,29.6,90,91,90,0.524,27.7,28.6,27.1,2.543,2.3,232,8.8,3.4,-0.00003,-0.00004,42.4,39.0,55,0,0,0.0,2.23,0.00,0.00
15min,AgWx,bigpiney,439,19MAY2019:00:30:00,35.4,12.72,32.7,32.3,31.1,32.4,30.3,89,90,88,0.551,28.2,29.5,27.2,1.14,2.3,234,32,4.6,-0.00003,-0.00003,42.3,39.0,55,0,0,0.0,2.23,0.00,0.00
15min,AgWx,bigpiney,439,19MAY2019:00:45:00,35.5,12.71,33.5,33.0,32.7,33.1,32.3,86,89,83,0.528,29.0,29.5,28.4,1.732,0.8,322,25,2.0,-0.00006,-0.00008,42.3,39.0,55,0,0,0.0,2.23,0.00,0.00
15min,AgWx,bigpiney,439,19MAY2019:01:00:00,35.6,12.71,32.4,32.0,32.6,33.1,32.0,83,85,81,0.520,28.0,28.5,27.8,3.157,2.0,251,81,4.2,-0.00002,-0.00002,42.2,39.0,55,0,0,0.0,2.23,0.00,0.00
15min,AgWx,bigpiney,439,19MAY2019:01:15:00,35.7,12.7,33.1,32.7,32.3,32.8,32.0,87,88,85,0.552,28.8,29.6,28.1,3.573,3.9,226,5.6,5.3,0.00000,0.00001,42.2,39.0,55,0,0,0.0,2.23,0.00,0.00
15min,AgWx,bigpiney,439,19MAY2019:01:30:00,36.0,12.68,32.8,32.5,32.7,32.8,32.5,88,88,88,0.551,29.5,29.7,29.4,3.157,4.0,215,6.3,5.7,0.00000,0.00001,42.1,39.0,55,0,0,0.0,2.23,0.00,0.00
15min,AgWx,bigpiney,439,19MAY2019:01:45:00,36.1,12.68,32.0,32.0,32.2,32.5,31.8,89,90,88,0.545,29.3,29.6,28.9,3.793,4.1,209,6.8,5.2,-0.00000,0.00000,42.0,39.0,55,0,0,0.0,2.23,0.00,0.00
15min,AgWx,bigpiney,439,19MAY2019:02:00:00,36.1,12.66,32.7,32.5,31.7,32.7,31.0,88,90,85,0.532,28.7,29.3,28.0,2.674,4.5,145,32,9.5,0.00000,0.00001,42.0,39.0,55,0,0,0.0,2.23,0.00,0.00
15min,AgWx,bigpiney,439,19MAY2019:02:15:00,36.0,12.66,32.7,32.1,32.1,32.6,31.8,86,87,85,0.524,28.5,28.7,28.2,0,1.7,144,45,3.6,-0.00003,-0.00004,41.9,39.0,55,0,0,0.0,2.23,0.00,0.00
15min,AgWx,bigpiney,439,19MAY2019:02:30:00,35.8,12.64,32.6,32.2,32.0,32.3,31.8,86,87,85,0.533,28.2,28.7,27.9,0.241,0.8,87,26,3.0,-0.00006,-0.00008,41.8,39.0,55,0,0,0.0,2.23,0.00,0.00
15min,AgWx,bigpiney,439,19MAY2019:02:45:00,35.7,12.63,32.9,32.4,32.4,32.8,32.2,87,88,86,0.544,28.9,29.2,28.6,0.767,1.1,321,39,2.3,-0.00005,-0.00007,41.8,39.0,55,0,0,0.0,2.23,0.00,0.00
15min,AgWx,bigpiney,439,19MAY2019:03:00:00,35.7,12.63,32.5,32.0,32.1,32.6,31.7,88,88,88,0.539,29.0,29.5,28.6,2.17,1.2,141,39,2.2,-0.00005,-0.00007,41.7,39.0,55,0,0,0.0,2.23,0.00,0.00
15min,AgWx,bigpiney,439,19MAY2019:03:15:00,35.7,12.61,32.2,32.0,32.2,32.4,32.0,88,89,88,0.541,29.2,29.4,28.9,5.283,1.9,127,28,5.3,-0.00004,-0.00004,41.6,39.0,55,0,0,0.0,2.23,0.00,0.00
15min,AgWx,bigpiney,439,19MAY2019:03:30:00,35.5,12.6,31.8,31.7,32.0,32.1,31.7,90,90,89,0.544,29.4,29.6,29.0,4.187,5.9,109,6.7,7.9,0.00001,0.00002,41.5,39.0,55,0,0,0.0,2.23,0.00,0.00
15min,AgWx,bigpiney,439,19MAY2019:03:45:00,35.2,12.59,31.2,30.7,31.1,31.7,30.7,91,91,90,0.528,28.7,29.1,28.3,3.924,4.1,111,6.4,5.3,-0.00001,-0.00001,41.5,39.0,55,0,0,0.0,2.23,0.00,0.00
15min,AgWx,bigpiney,439,19MAY2019:04:00:00,34.8,12.58,30.6,30.4,30.6,30.8,30.4,91,92,91,0.524,28.4,28.5,28.2,0.504,1.5,147,34,3.6,-0.00005,-0.00006,41.4,39.0,55,0,0,0.0,2.23,0.00,0.00
15min,AgWx,bigpiney,439,19MAY2019:04:15:00,34.3,12.57,31.2,30.8,30.7,30.9,30.4,91,92,90,0.523,28.4,28.5,28.2,2.894,2.2,124,20,3.3,-0.00003,-0.00004,41.3,39.0,55,0,0,0.0,2.23,0.00,0.00
15min,AgWx,bigpiney,439,19MAY2019:04:30:00,34.1,12.55,31.0,30.4,30.6,30.8,30.4,90,90,90,0.513,27.9,28.2,27.7,4.253,2.8,111,6.1,4.4,-0.00002,-0.00002,41.2,39.0,55,0,0,0.0,2.23,0.00,0.00
15min,AgWx,bigpiney,439,19MAY2019:04:45:00,33.9,12.53,30.3,29.9,30.2,30.7,29.9,89,90,88,0.501,27.3,27.9,26.9,2.192,3.3,149,19,6.3,-0.00001,-0.00001,41.2,38.9,55,0,0,0.0,2.23,0.00,0.00
15min,AgWx,bigpiney,439,19MAY2019:05:00:00,33.9,12.52,31.1,30.6,30.0,30.6,29.8,90,92,89,0.530,27.5,28.5,27.1,2.017,1.5,180,15,2.9,-0.00004,-0.00006,41.1,38.9,55,0,0,0.0,2.23,0.00,0.00
15min,AgWx,bigpiney,439,19MAY2019:05:15:00,34.2,12.5,32.1,31.5,31.1,31.5,30.7,91,92,90,0.540,28.8,29.1,28.5,6.467,3.2,182,12,6.5,-0.00002,-0.00002,41.0,39.0,55,0,0,0.0,2.23,0.00,0.00
15min,AgWx,bigpiney,439,19MAY2019:05:30:00,34.5,12.49,32.1,31.7,31.7,31.8,31.5,89,90,89,0.538,28.9,29.0,28.7,2.85,4.1,143,10,6.8,-0.00000,0.00000,41.0,38.9,55,0,0,0.0,2.23,0.00,0.00
15min,AgWx,bigpiney,439,19MAY2019:05:45:00,34.8,12.49,32.3,32.0,31.9,32.0,31.7,89,90,89,0.542,29.1,29.2,28.9,2.126,3.7,138,6.1,5.3,-0.00001,-0.00001,40.9,39.0,55,0,0,0.0,2.23,0.00,0.00
15min,AgWx,bigpiney,439,19MAY2019:06:00:00,35.1,12.48,32.2,32.0,31.9,32.0,31.8,89,90,89,0.548,29.2,29.3,29.0,2.061,2.3,136,7.1,3.5,-0.00002,-0.00003,40.8,38.9,55,3,0,0.0,2.23,0.00,0.00
15min,AgWx,bigpiney,439,19MAY2019:06:15:00,35.3,12.49,32.4,31.9,32.0,32.1,31.9,90,90,90,0.546,29.4,29.5,29.2,2.368,2.6,115,14,3.4,-0.00006,-0.00003,40.8,38.9,55,8,0,0.0,2.23,0.00,0.00